Williams, AZ

7:18 PM MST on December 03, 2016 (GMT -0700)
Grand Canyon National Park

Weather History for KGCN - April, 2014

Change the Weather History Date:

Tuesday, April 29, 2014

  Actual Average Record
Temperature  
Mean Temperature 42 °F -  
Max Temperature 57 °F 61 °F 80 °F (1992)
Min Temperature 27 °F 25 °F 13 °F (1984)
Degree Days  
Heating Degree Days 23    
Moisture  
Dew Point 6 °F    
Average Humidity 23    
Maximum Humidity 63    
Minimum Humidity 11    
Precipitation  
Precipitation 0.00 in - - ()
Sea Level Pressure  
Sea Level Pressure 30.18 in    
Wind  
Wind Speed 9 mph (NE)    
Max Wind Speed 17 mph    
Max Gust Speed 29 mph    
Visibility 10 miles    
Events      
Averages and records for this station are not official NWS values.
T = Trace of Precipitation, MM = Missing Value Source: NWS Daily Summary

Daily Weather History Graph

Daily Weather History Graph

Search for Another Location

Airport or City:

Trip Planner

Search our weather history database for the weather conditions in past years. The results will help you decide how hot, cold, wet, or windy it might be!

Date:

Astronomy

Apr. 29, 2014 Rise Set
Actual Time 5:38 AM MST 7:14 PM MST
Civil Twilight 5:11 AM MST 7:41 PM MST
Nautical Twilight 4:38 AM MST 8:14 PM MST
Astronomical Twilight 4:03 AM MST 8:49 PM MST
Moon 5:58 AM MST (4/29) 7:57 PM MST (4/29)
Length of Visible Light 14h 30m
Length of Day
13h 35m
New Moon, 0% of the Moon is Illuminated
Apr 29
New Moon
May 6
First Quarter
May 14
Full
May 21
Last Quarter
May 28
New

Hourly Weather History & Observations

Time (MST) Temp. Windchill Dew Point Humidity Pressure Visibility Wind Dir Wind Speed Gust Speed Precip Events Conditions
12:54 AM 27.0 °F 23.0 °F 16.0 °F 63% 30.19 in 10.0 mi NNE 3.5 mph - N/A   Clear
1:54 AM 39.0 °F 31.4 °F 9.0 °F 29% 30.14 in 10.0 mi NNE 12.7 mph 20.7 mph N/A   Clear
2:54 AM 36.0 °F 29.6 °F 10.9 °F 36% 30.15 in 10.0 mi North 8.1 mph - N/A   Clear
3:54 AM 35.1 °F 28.6 °F 10.0 °F 35% 30.16 in 10.0 mi North 8.1 mph - N/A   Clear
4:54 AM 35.1 °F 27.4 °F 8.1 °F 33% 30.17 in 10.0 mi NNE 10.4 mph - N/A   Clear
5:54 AM 28.0 °F 22.8 °F 10.0 °F 47% 30.22 in 10.0 mi NNE 4.6 mph - N/A   Clear
6:54 AM 39.0 °F 32.3 °F 10.9 °F 32% 30.20 in 10.0 mi NNE 10.4 mph - N/A   Clear
7:54 AM 42.1 °F 34.2 °F 7.0 °F 24% 30.23 in 10.0 mi NE 16.1 mph - N/A   Clear
8:54 AM 43.0 °F 35.7 °F 5.0 °F 21% 30.23 in 10.0 mi NNE 15.0 mph 26.5 mph N/A   Clear
9:54 AM 45.0 °F 37.6 °F 3.0 °F 18% 30.25 in 10.0 mi NE 17.3 mph 25.3 mph N/A   Clear
10:54 AM 48.0 °F - 1.0 °F 14% 30.23 in 10.0 mi ENE 16.1 mph 28.8 mph N/A   Clear
11:54 AM 50.0 °F - -0.9 °F 12% 30.24 in 10.0 mi NE 17.3 mph 26.5 mph N/A   Clear
12:54 PM 50.0 °F - 1.0 °F 13% 30.24 in 10.0 mi ENE 8.1 mph 19.6 mph N/A   Clear
2:54 PM 53.1 °F - 3.0 °F 13% 30.14 in 10.0 mi Variable 5.8 mph - N/A   Clear
3:54 PM 55.0 °F - 1.0 °F 11% 30.12 in 10.0 mi Calm Calm - N/A   Clear
4:07 PM 55.9 °F - 1.0 °F 11% 30.23 in 5.0 mi Variable 4.6 mph - N/A   Haze
4:54 PM 57.0 °F - 1.9 °F 11% 30.11 in 10.0 mi NNE 9.2 mph 18.4 mph N/A   Clear
5:54 PM 55.0 °F - 3.0 °F 12% 30.14 in 10.0 mi NE 10.4 mph - N/A   Clear
6:54 PM 50.0 °F - 3.9 °F 15% 30.13 in 10.0 mi ENE 8.1 mph - N/A   Clear
7:54 PM 48.0 °F - 3.0 °F 16% 30.15 in 10.0 mi NE 11.5 mph - N/A   Clear
8:54 PM 42.1 °F 37.7 °F 3.0 °F 20% 30.19 in 10.0 mi NE 6.9 mph - N/A   Clear
9:54 PM 45.0 °F 38.5 °F 6.1 °F 20% 30.18 in 10.0 mi NE 13.8 mph - N/A   Clear
10:54 PM 43.0 °F 36.4 °F 7.0 °F 23% 30.18 in 10.0 mi NE 12.7 mph - N/A   Clear
11:54 PM 39.9 °F 36.7 °F 8.1 °F 27% 30.19 in 10.0 mi Variable 4.6 mph - N/A   Clear